When you browse on this site, cookies collect data to enhance your experience and personalize the content and advertising you see.
Visit our Privacy Policy to learn more. By continuing to use the site, you agree to this use of cookies and data.
  • In Hungary
  • List of Countries
  • For 7 days
  • Water Temperature
  • Satellite Maps
  • Weather Map
  • News
  • Weather Widgets
  • user-avatar
    Login

    Hourly Weather Mzuzu

    Today, 17 November, Saturday

    Time Temperature Precipitation Wind Pressure Humidity
    00:00 +26°C° 0 mm 2 mps 699 mmHg 19%
    01:00 +25°C° 0 mm 2 mps 699 mmHg 19%
    02:00 +25°C° 0 mm 2 mps 699 mmHg 19%
    03:00 +24°C° 0 mm 2 mps 699 mmHg 20%
    04:00 +24°C° 0 mm 2 mps 699 mmHg 20%
    05:00 +23°C° 0 mm 2 mps 699 mmHg 20%
    06:00 +25°C° 0 mm 2 mps 700 mmHg 19%
    07:00 +27°C° 0 mm 3 mps 700 mmHg 18%
    08:00 +29°C° 0 mm 3 mps 701 mmHg 16%
    09:00 +30°C° 0 mm 3 mps 701 mmHg 16%
    10:00 +33°C° 0 mm 4 mps 700 mmHg 16%
    11:00 +35°C° 0 mm 4 mps 700 mmHg 16%
    12:00 +35°C° 0 mm 3 mps 700 mmHg 16%
    13:00 +36°C° 0 mm 3 mps 699 mmHg 15%
    14:00 +36°C° 0 mm 3 mps 699 mmHg 18%
    15:00 +35°C° 0 mm 2 mps 698 mmHg 20%
    16:00 +34°C° 0 mm 2 mps 698 mmHg 21%
    17:00 +32°C° 0 mm 2 mps 698 mmHg 22%
    18:00 +31°C° 0 mm 2 mps 698 mmHg 23%
    19:00 +30°C° 0 mm 1 mps 698 mmHg 23%
    20:00 +29°C° 0 mm 1 mps 699 mmHg 23%
    21:00 +28°C° 0 mm 1 mps 699 mmHg 23%
    22:00 +28°C° 0 mm 1 mps 699 mmHg 22%
    23:00 +27°C° 0 mm 1 mps 699 mmHg 21%

    Tomorrow, 18 November, Sunday

    Time Temperature Precipitation Wind Pressure Humidity
    00:00 +27°C° 0 mm 1 mps 699 mmHg 21%
    01:00 +26°C° 0 mm 1 mps 699 mmHg 20%
    02:00 +26°C° 0 mm 1 mps 699 mmHg 20%
    03:00 +25°C° 0 mm 1 mps 699 mmHg 20%
    04:00 +25°C° 0 mm 1 mps 699 mmHg 20%
    05:00 +24°C° 0 mm 1 mps 699 mmHg 20%
    06:00 +26°C° 0 mm 2 mps 699 mmHg 18%
    07:00 +28°C° 0 mm 2 mps 700 mmHg 16%
    08:00 +29°C° 0 mm 3 mps 700 mmHg 15%
    09:00 +31°C° 0 mm 3 mps 700 mmHg 14%
    10:00 +34°C° 0 mm 3 mps 700 mmHg 13%
    11:00 +36°C° 0 mm 3 mps 700 mmHg 13%
    12:00 +36°C° 0 mm 3 mps 700 mmHg 13%
    13:00 +37°C° 0 mm 3 mps 699 mmHg 14%
    14:00 +37°C° 0 mm 3 mps 698 mmHg 14%
    15:00 +36°C° 0 mm 2 mps 698 mmHg 15%
    16:00 +35°C° 0 mm 2 mps 697 mmHg 16%
    17:00 +34°C° 0 mm 2 mps 697 mmHg 18%
    18:00 +32°C° 0 mm 2 mps 697 mmHg 18%
    19:00 +31°C° 0 mm 2 mps 698 mmHg 19%
    20:00 +30°C° 0 mm 2 mps 698 mmHg 19%
    21:00 +29°C° 0 mm 2 mps 698 mmHg 19%
    22:00 +28°C° 0 mm 2 mps 698 mmHg 20%
    23:00 +28°C° 0 mm 2 mps 698 mmHg 20%

    Day after tomorrow, 19 November, Monday

    Time Temperature Precipitation Wind Pressure Humidity
    00:00 +27°C° 0 mm 2 mps 698 mmHg 20%
    01:00 +27°C° 0 mm 2 mps 697 mmHg 21%
    02:00 +26°C° 0 mm 2 mps 697 mmHg 21%
    03:00 +26°C° 0 mm 2 mps 697 mmHg 22%
    04:00 +25°C° 0 mm 1 mps 697 mmHg 22%
    05:00 +24°C° 0 mm 1 mps 697 mmHg 23%
    06:00 +26°C° 0 mm 2 mps 698 mmHg 21%
    07:00 +28°C° 0 mm 2 mps 699 mmHg 19%
    08:00 +30°C° 0 mm 3 mps 700 mmHg 17%
    09:00 +33°C° 0 mm 3 mps 700 mmHg 16%
    10:00 +34°C° 0 mm 3 mps 700 mmHg 15%
    11:00 +36°C° 0 mm 3 mps 700 mmHg 14%
    12:00 +37°C° 0 mm 3 mps 699 mmHg 14%
    13:00 +38°C° 0 mm 3 mps 698 mmHg 14%
    14:00 +38°C° 0 mm 2 mps 697 mmHg 14%
    15:00 +37°C° 0 mm 2 mps 697 mmHg 16%
    16:00 +36°C° 0 mm 2 mps 697 mmHg 17%
    17:00 +35°C° 0 mm 2 mps 696 mmHg 18%
    18:00 +32°C° 0 mm 2 mps 697 mmHg 19%
    19:00 +31°C° 0 mm 2 mps 697 mmHg 19%
    20:00 +30°C° 0 mm 2 mps 698 mmHg 19%
    21:00 +29°C° 0 mm 2 mps 698 mmHg 19%
    22:00 +29°C° 0 mm 2 mps 698 mmHg 19%
    23:00 +28°C° 0 mm 2 mps 698 mmHg 19%

    20 November, Tuesday

    Time Temperature Precipitation Wind Pressure Humidity
    00:00 +28°C° 0 mm 2 mps 697 mmHg 19%
    01:00 +27°C° 0 mm 2 mps 697 mmHg 20%
    02:00 +26°C° 0 mm 1 mps 697 mmHg 20%
    03:00 +26°C° 0 mm 1 mps 697 mmHg 21%
    04:00 +26°C° 0 mm 1 mps 697 mmHg 21%
    05:00 +25°C° 0 mm 1 mps 697 mmHg 21%
    06:00 +27°C° 0 mm 2 mps 698 mmHg 20%
    07:00 +28°C° 0 mm 2 mps 698 mmHg 19%
    08:00 +30°C° 0 mm 2 mps 699 mmHg 18%
    09:00 +33°C° 0 mm 3 mps 699 mmHg 18%
    10:00 +35°C° 0 mm 3 mps 699 mmHg 18%
    11:00 +37°C° 0 mm 3 mps 699 mmHg 18%
    12:00 +38°C° 0 mm 3 mps 698 mmHg 18%
    13:00 +38°C° 0 mm 2 mps 697 mmHg 18%
    14:00 +39°C° 0 mm 2 mps 697 mmHg 18%
    15:00 +38°C° 0 mm 2 mps 696 mmHg 20%
    16:00 +37°C° 0 mm 2 mps 696 mmHg 21%
    17:00 +35°C° 0 mm 1 mps 696 mmHg 23%
    18:00 +34°C° 0 mm 1 mps 696 mmHg 24%
    19:00 +33°C° 0 mm 1 mps 697 mmHg 25%
    20:00 +31°C° 0 mm 1 mps 697 mmHg 27%
    21:00 +31°C° 0 mm 1 mps 697 mmHg 27%
    22:00 +30°C° 0 mm 1 mps 697 mmHg 28%
    23:00 +30°C° 0 mm 1 mps 697 mmHg 29%

    21 November, Wednesday

    Time Temperature Precipitation Wind Pressure Humidity
    00:00 +29°C° 0 mm 1 mps 697 mmHg 29%
    01:00 +29°C° 0 mm 1 mps 696 mmHg 29%
    02:00 +28°C° 0 mm 1 mps 696 mmHg 29%
    03:00 +28°C° 0 mm 1 mps 696 mmHg 30%
    04:00 +27°C° 0 mm 1 mps 696 mmHg 31%
    05:00 +27°C° 0 mm 1 mps 696 mmHg 32%
    06:00 +29°C° 0 mm 2 mps 697 mmHg 31%
    07:00 +30°C° 0 mm 2 mps 698 mmHg 30%
    08:00 +32°C° 0 mm 2 mps 699 mmHg 29%
    09:00 +35°C° 0 mm 3 mps 699 mmHg 27%
    10:00 +37°C° 0 mm 3 mps 698 mmHg 26%
    11:00 +38°C° 0 mm 3 mps 698 mmHg 24%
    12:00 +39°C° 0 mm 3 mps 698 mmHg 23%
    13:00 +39°C° 0 mm 2 mps 697 mmHg 22%
    14:00 +40°C° 0 mm 2 mps 696 mmHg 21%
    15:00 +39°C° 0 mm 2 mps 696 mmHg 23%
    16:00 +38°C° 0 mm 2 mps 696 mmHg 24%
    17:00 +36°C° 0 mm 1 mps 696 mmHg 26%
    18:00 +35°C° 0 mm 1 mps 696 mmHg 27%
    19:00 +34°C° 0 mm 1 mps 697 mmHg 27%
    20:00 +34°C° 0 mm 1 mps 697 mmHg 28%
    21:00 +33°C° 0 mm 1 mps 697 mmHg 28%
    22:00 +33°C° 0 mm 1 mps 697 mmHg 29%
    23:00 +32°C° 0 mm 1 mps 697 mmHg 30%

    22 November, Thursday

    Time Temperature Precipitation Wind Pressure Humidity
    00:00 +32°C° 0 mm 1 mps 697 mmHg 31%
    01:00 +31°C° 0 mm 1 mps 696 mmHg 32%
    02:00 +30°C° 0 mm 1 mps 696 mmHg 34%
    03:00 +30°C° 0 mm 1 mps 696 mmHg 35%
    04:00 +29°C° 0 mm 1 mps 696 mmHg 35%
    05:00 +29°C° 0 mm 1 mps 697 mmHg 36%
    06:00 +30°C° 0 mm 1 mps 697 mmHg 33%
    07:00 +32°C° 0 mm 2 mps 698 mmHg 30%
    08:00 +34°C° 0 mm 2 mps 699 mmHg 27%
    09:00 +36°C° 0 mm 2 mps 699 mmHg 26%
    10:00 +37°C° 0 mm 2 mps 698 mmHg 24%
    11:00 +39°C° 0 mm 2 mps 698 mmHg 22%
    12:00 +39°C° 0 mm 2 mps 698 mmHg 22%
    13:00 +39°C° 0 mm 2 mps 697 mmHg 22%
    14:00 +39°C° 0 mm 2 mps 696 mmHg 21%
    15:00 +38°C° 0 mm 2 mps 696 mmHg 22%
    16:00 +37°C° 0 mm 2 mps 696 mmHg 23%
    17:00 +35°C° 0 mm 1 mps 696 mmHg 24%
    18:00 +35°C° 0 mm 1 mps 697 mmHg 25%
    19:00 +34°C° 0 mm 1 mps 697 mmHg 26%
    20:00 +33°C° 0 mm 1 mps 698 mmHg 27%
    21:00 +32°C° 0 mm 1 mps 697 mmHg 29%
    22:00 +31°C° 0 mm 1 mps 697 mmHg 30%
    23:00 +31°C° 0 mm 1 mps 697 mmHg 32%
    Show more